Lid_Strength_Index
5 4 5 4 6 5 5 4 6 10 9 6 5 3 3 2 2 3 4 2 2 1 2 2 2 2 3 3 3 3 4 4 4 3 1 1 0 0
4 5 7 6 7 6 6 6 6 7 10 6 6 4 3 3 3 3 4 3 3 2 3 2 2 3 3 3 4 4 4 4 4 4 4 2 1 1
6 7 7 6 7 7 7 7 7 7 9 8 6 5 5 5 5 4 4 4 4 3 2 2 2 2 2 3 4 5 5 5 4 4 5 4 3 2
7 7 7 6 7 7 8 8 8 7 8 9 7 6 6 6 6 6 5 4 5 4 3 2 3 2 2 3 3 4 5 5 5 4 4 4 4 4
7 7 7 7 8 8 8 8 7 6 6 6 7 6 6 6 7 6 6 6 5 4 4 4 4 3 2 2 2 3 4 5 5 5 5 5 4 5
7 7 7 7 8 8 8 8 7 7 7 7 7 7 6 6 7 7 8 7 7 6 5 5 5 4 3 3 2 2 3 4 5 5 6 6 6 6
7 7 7 6 5 5 6 6 7 8 8 8 8 7 7 7 8 7 8 8 8 7 7 7 6 5 5 5 4 3 4 3 4 4 5 6 6 6
7 7 7 7 7 6 6 6 6 8 8 8 8 8 7 6 6 8 8 9 9 7 7 8 7 7 6 6 5 4 3 3 4 4 5 5 6 6
9 9 9 8 8 8 7 7 6 6 6 6 7 6 6 5 6 7 8 8 8 7 7 8 8 8 6 6 5 4 3 4 4 4 5 6 6 7
9 9 9 9 8 8 7 7 7 6 6 6 5 5 4 4 5 5 7 7 7 7 6 9 8 8 7 7 6 5 4 3 3 4 4 5 6 6
9 9 9 9 8 6 7 8 8 7 5 4 3 3 3 3 4 5 7 8 9 7 7 8 8 9 9 8 7 6 5 4 3 3 3 3 4 5
9 9 8 8 7 7 8 9 9 8 7 6 5 5 4 4 5 5 7 8 8 9 7 9 9 10 11 9 8 7 7 5 4 4 3 3 3 3
10 10 9 8 8 7 8 9 9 8 8 7 7 6 5 5 5 5 6 7 8 9 7 8 9 9 9 10 9 8 8 8 6 5 4 3 3 4
11 10 10 8 8 9 9 8 8 9 9 9 9 8 8 7 6 5 5 5 6 7 6 7 8 9 9 10 10 8 8 8 8 7 7 6 5 4
11 10 9 9 10 10 10 10 10 11 11 12 11 10 9 8 7 6 6 6 6 5 6 6 7 8 8 9 9 9 8 7 9 8 8 8 7 7
12 13 13 11 13 12 12 12 12 12 13 13 12 11 10 10 9 8 8 8 8 8 7 6 6 7 8 8 8 8 8 8 8 8 7 8 8 7
17 17 16 16 15 14 14 13 13 14 14 14 14 13 12 11 10 8 8 9 9 9 9 8 7 7 6 7 8 8 8 8 7 8 7 7 7 7
15 19 23 23 20 15 16 15 15 16 16 15 15 15 14 14 12 10 10 10 11 10 11 11 11 8 8 8 8 8 8 8 7 7 7 7 7 6
18 20 24 25 22 16 16 16 16 16 16 17 16 17 16 14 13 13 12 12 12 12 11 11 11 12 11 12 11 8 10 9 9 7 7 6 6 6
17 19 21 21 19 16 16 17 17 18 18 18 18 18 19 16 15 15 14 15 14 13 13 12 12 12 12 12 11 10 10 11 11 11 10 9 9 8
17 16 19 18 18 18 22 22 25 22 20 20 19 19 20 19 17 16 15 17 17 14 14 14 13 12 11 11 13 12 10 10 11 11 11 11 10 9
18 17 16 17 19 19 23 26 22 23 22 19 19 19 20 20 18 18 18 17 16 16 15 14 12 11 10 11 12 13 11 12 11 9 9 10 11 11
18 17 18 20 20 21 18 21 22 24 22 21 20 18 19 19 18 18 18 17 16 16 16 15 14 12 12 12 12 12 13 12 12 11 10 10 8 8